Flag for U.S.A. Weather past 2 weeks in Minot, North Dakota, U.S.A.

Now
29 °F

Low clouds.


Feels Like: 15 °F
Forecast: 28 / 33 °F
Wind: 22 mph from Northwest

Location: Minot International Airport

Current Time: Jan 28, 2015 at 4:39:30 PM

Latest Report: Jan 28, 2015 at 3:54 PM


Visibility: 7 mi

Pressure: 30.05 "Hg

Humidity: 89%

Dew point: 26 °F

Location of MinotLocation

Historic Weather in Minot — Graph

°F

Minot temperature yesterday

Maximum temperature yesterday: 48 °F (at 2:54 PM)
Minimum temperature yesterday: 29 °F (at 6:54 AM)
Average temperature yesterday: 36 °F

Past Weeks' High & Low Weather Summary

 TemperatureHumidityPressure
High48 °F (Jan 27, 2:54 PM)96% (Jan 24, 11:54 PM)30.37 "Hg (Jan 24, 11:54 PM)
Low15 °F (Jan 13, 2:54 PM)52% (Jan 22, 12:54 PM)29.45 "Hg (Jan 16, 10:54 PM)
Average30 °F78%29.93 "Hg
* Reported Jan 13 2:54 PM — Jan 28 2:54 PM, Minot, Weather by CustomWeather, © 2014

Note: Actual official high and low records may vary slightly from our data, if they occured in-between our weather recording intervals... More about our weather records

Advertising

Minot weather history for previous 24 hours

 ConditionsComfort  
Time TempWeatherWind HumidityBarometerVisibility
2:54 PM
Jan 28
28 °FIce fog.18 mph93%30.01 "Hg2 mi
1:54 PM28 °FIce fog.18 mph93%29.98 "Hg2 mi
1:01 PM28 °FIce fog.20 mph93%29.88 "Hg3 mi
11:54 AM29 °FIce fog.16 mph93%29.91 "Hg1 mi
10:54 AM30 °FIce fog.9 mph96%29.89 "Hg1 mi
9:54 AM29 °FIce fog.8 mph96%29.85 "Hg0 mi
8:54 AM28 °FIce fog.6 mph93%29.83 "Hg0 mi
7:54 AM27 °FIce fog.8 mph96%29.82 "Hg0 mi
6:54 AM27 °FIce fog.6 mph92%29.80 "Hg0 mi
5:54 AM28 °FIce fog.7 mph93%29.80 "Hg0 mi
4:54 AM28 °FIce fog.9 mph96%29.78 "Hg1 mi
3:54 AM30 °FIce fog.7 mph89%29.78 "Hg6 mi
2:54 AM30 °FClear.5 mph89%29.78 "Hg8 mi
1:54 AM30 °FClear.5 mph92%29.78 "Hg8 mi
12:54 AM30 °FClear.6 mph92%29.81 "Hg8 mi
11:54 PM
Jan 27
31 °FClear.5 mph89%29.82 "Hg7 mi
10:54 PM30 °FClear.3 mph92%29.81 "Hg10 mi
9:54 PM34 °FClear.3 mph85%29.83 "Hg10 mi
8:54 PM37 °FClear.9 mph86%29.83 "Hg10 mi
7:54 PM36 °FClear.8 mph89%29.82 "Hg10 mi
6:54 PM38 °FClear.6 mph83%29.82 "Hg10 mi
5:54 PM41 °FClear.7 mph80%29.84 "Hg10 mi
4:54 PM45 °FSunny.8 mph74%29.82 "Hg10 mi
Weather by CustomWeather, © 2014

See weather overviewHow to use our weather pages